ECMWFFLT2_700_spd_009.txt.gz
Wind_Speed
16 16 18 19 17 16 16 15 14 14 12 13 13 12 10 7 6 5 4 3 4 4 4 4 3 4 6 5 5 5 5 5 7 8 11 12 11 12 12 13 15 18 25 30 30 29 28 27 27 27 26 26 25 26 26 26 26 26 26 25 23 21
18 16 17 18 16 14 15 15 16 15 13 13 13 12 11 7 5 4 3 3 4 5 5 3 3 5 7 6 4 4 4 5 6 7 9 11 11 12 13 14 15 18 24 29 30 29 28 27 27 26 26 26 26 25 25 25 25 25 25 25 24 22
21 19 18 17 14 13 14 15 16 14 13 14 14 14 11 7 6 5 5 4 6 7 6 5 3 5 7 7 5 4 5 6 5 6 8 10 10 11 13 14 16 18 23 28 30 29 28 27 26 26 25 25 25 25 24 24 24 23 23 24 23 23
23 23 22 18 13 13 15 15 15 14 14 13 14 16 14 9 7 7 7 6 7 7 7 7 6 5 6 8 8 5 5 5 4 6 8 8 9 10 12 14 16 18 21 26 30 30 29 28 27 26 26 25 25 25 24 24 23 23 23 23 23 23
22 23 24 22 16 13 15 14 13 15 15 14 15 16 15 11 9 9 9 9 9 8 8 9 9 8 7 8 9 8 6 5 4 5 6 7 9 10 11 13 16 18 20 24 28 31 31 30 29 27 26 26 25 24 24 24 23 23 23 22 22 22
20 21 22 23 21 17 15 13 12 14 15 15 16 17 16 14 11 10 10 9 9 11 11 11 11 10 9 9 9 8 8 6 4 4 5 6 9 11 12 13 15 18 20 22 26 30 31 31 30 29 27 26 25 24 24 24 24 23 22 22 22 22
18 18 19 21 22 20 16 13 14 15 16 16 17 19 20 18 14 12 11 9 10 12 13 13 13 12 10 10 10 9 10 8 6 5 5 5 8 11 12 13 14 16 19 21 24 28 31 31 30 30 29 27 26 24 24 25 25 24 23 21 21 21
18 18 19 19 21 22 19 16 15 16 16 16 17 18 19 18 16 15 13 10 11 13 15 15 14 12 11 12 11 10 11 10 7 6 5 5 7 9 10 12 11 13 17 20 22 26 30 31 30 30 30 29 27 26 26 26 25 25 24 22 21 21
19 19 20 20 20 22 21 20 19 18 15 16 17 16 16 17 17 17 16 15 16 14 14 15 14 13 13 13 12 10 10 11 10 8 6 5 7 8 9 11 11 12 15 19 22 24 28 30 31 31 30 30 29 27 27 26 26 25 24 23 23 23
19 20 21 21 21 21 21 22 23 21 18 17 16 15 17 18 17 17 17 19 19 16 15 14 13 13 13 13 12 12 11 12 12 10 7 6 8 10 10 11 12 13 14 17 21 24 26 28 30 31 31 31 30 29 28 28 27 25 25 24 24 23
18 19 21 21 22 22 22 22 23 23 21 19 16 16 19 19 18 18 18 18 18 19 17 14 14 14 14 14 13 13 12 14 13 11 11 10 10 12 12 13 14 15 16 17 20 23 25 27 29 31 31 32 31 30 30 29 28 27 26 26 25 24
16 17 19 20 21 22 22 22 23 24 23 21 20 20 21 21 20 20 19 19 19 21 18 15 16 15 15 15 14 13 13 15 15 14 16 13 12 13 14 15 15 15 17 17 18 21 24 26 28 30 31 32 32 32 32 31 30 29 28 28 27 26
14 15 17 19 20 21 22 22 22 23 23 24 24 23 23 23 22 21 21 21 21 21 19 16 15 16 16 16 15 15 16 17 17 16 17 15 13 13 14 15 14 15 16 16 16 18 21 24 27 29 30 31 32 33 33 33 32 32 31 30 29 28
14 14 14 16 18 20 21 21 22 23 23 24 25 26 26 25 24 24 23 23 23 22 20 19 17 18 19 17 16 15 17 18 17 16 16 15 15 14 16 17 15 16 16 16 17 17 19 23 25 27 29 31 32 33 34 34 34 34 33 32 31 31
14 14 14 15 16 18 19 20 21 22 23 24 25 28 29 28 27 26 25 24 24 23 22 21 20 21 21 20 18 16 17 19 16 16 16 16 16 16 17 17 17 17 17 16 16 17 18 21 23 24 27 29 31 33 34 34 35 35 35 34 33 32
15 15 15 15 16 17 18 19 20 21 22 24 25 27 29 30 30 29 28 26 25 25 24 22 22 23 23 21 20 18 20 21 19 18 19 17 17 17 16 17 18 18 17 17 15 16 17 20 21 22 24 26 29 32 34 34 36 37 36 35 34 33
15 16 16 16 16 17 17 19 19 20 21 23 24 26 28 30 32 33 32 31 28 27 26 24 23 24 23 22 22 23 25 25 22 21 22 19 17 19 17 16 18 18 18 18 17 16 17 18 21 22 23 24 25 29 32 34 36 38 37 36 35 34
14 15 16 15 16 16 17 18 18 19 20 21 23 24 26 28 30 32 34 34 33 31 30 28 27 26 24 24 25 26 27 27 25 23 23 21 20 20 19 18 18 18 18 18 18 17 17 17 19 23 24 24 24 25 29 32 35 38 38 38 37 36
12 14 14 14 15 15 16 17 18 18 19 20 21 23 25 26 27 30 31 33 34 33 33 33 32 30 28 28 27 27 28 28 25 25 25 24 23 22 21 21 21 20 19 19 18 17 18 18 18 22 24 25 25 25 26 29 32 36 39 39 39 38
12 13 14 14 14 15 16 17 17 18 18 19 20 21 23 25 26 27 28 30 31 33 34 34 35 34 33 33 31 30 31 29 26 27 28 27 26 25 25 25 24 23 20 20 20 18 19 20 22 24 25 26 26 26 26 27 29 32 36 39 40 40
12 13 14 14 15 15 16 17 18 18 19 20 20 21 21 22 25 26 27 28 29 30 31 32 34 35 35 35 35 34 34 32 30 30 29 29 30 30 29 28 26 25 23 23 23 22 21 22 25 27 27 27 27 27 28 28 29 30 33 37 39 41
14 14 15 16 16 16 17 18 19 19 20 21 22 22 22 21 23 25 26 27 28 29 30 31 32 33 34 35 36 36 36 36 35 33 31 31 32 33 33 31 29 27 27 27 27 26 24 24 26 26 25 26 28 29 31 31 30 30 31 33 35 38
14 15 15 16 16 16 17 18 19 20 21 22 23 24 24 23 23 24 25 27 28 29 29 30 31 32 33 34 35 36 38 39 39 37 35 34 33 33 34 33 32 32 30 30 30 29 28 28 29 27 26 27 28 28 31 33 32 30 31 31 32 34
12 13 13 14 14 14 14 15 17 18 20 21 23 24 24 25 25 25 25 26 27 27 28 30 31 32 32 33 34 35 37 39 40 40 39 38 36 35 35 34 35 35 34 33 32 32 31 31 32 31 29 30 26 24 28 31 31 31 31 31 33 34
10 10 10 10 10 11 11 12 13 15 17 18 20 21 23 24 25 26 26 26 26 26 27 29 30 32 33 34 34 34 35 37 39 40 40 40 40 39 38 36 36 36 37 36 34 33 34 34 34 33 33 33 27 22 22 22 25 30 32 33 33 34
9 8 8 7 8 8 9 10 11 12 13 15 16 18 20 22 23 25 26 26 27 26 26 27 28 30 32 34 35 35 36 36 38 39 40 41 42 43 41 39 37 36 37 38 36 37 37 37 35 35 36 37 33 27 18 13 18 25 29 32 33 34
10 8 8 8 8 8 9 9 10 11 11 13 14 16 17 19 20 22 23 24 25 26 25 25 26 28 30 32 34 35 36 37 37 38 39 40 42 43 43 42 40 38 37 38 39 40 40 39 39 37 35 35 36 35 26 19 19 18 20 28 32 32
11 10 9 9 10 10 11 11 10 11 12 13 14 15 17 18 19 20 21 22 23 25 25 25 25 26 28 30 32 34 35 37 38 38 39 40 41 42 43 42 42 42 41 40 40 40 40 41 41 40 37 34 34 38 36 30 25 20 18 22 25 27
12 11 10 11 11 12 13 13 13 13 14 14 14 15 16 18 19 20 20 21 22 23 24 25 25 26 27 28 29 31 33 35 36 38 39 41 41 41 42 42 43 45 45 44 43 42 42 42 41 40 40 38 35 37 39 37 32 27 25 24 22 22
13 13 11 12 13 14 15 16 16 16 16 16 16 16 16 17 18 20 21 21 22 22 23 24 25 27 27 28 29 30 31 32 34 36 38 39 41 42 42 42 43 44 45 46 46 46 45 45 43 42 41 41 39 38 39 39 36 31 28 28 26 24
14 14 13 14 16 17 18 19 19 19 19 18 18 18 18 17 17 17 19 21 22 22 23 24 24 26 27 29 30 30 30 31 32 34 35 37 39 41 42 42 43 44 45 45 46 47 48 47 46 44 44 43 42 40 40 41 39 33 31 30 30 29
15 16 16 16 18 20 21 21 21 21 21 20 20 20 19 19 18 16 16 17 20 22 23 24 25 25 27 28 30 31 32 32 32 33 34 35 36 39 41 42 43 44 45 45 45 46 48 49 48 46 46 46 44 42 41 42 40 37 35 33 32 32
17 18 19 19 21 22 23 23 23 23 23 23 22 22 21 21 20 18 17 16 17 19 21 23 25 26 27 28 29 31 32 33 34 34 34 34 35 36 39 41 43 43 45 45 45 45 45 46 46 46 46 46 46 43 40 41 41 41 40 36 34 32
19 20 21 22 23 24 24 24 24 25 25 25 24 23 23 22 22 21 20 19 18 18 19 21 24 26 27 28 29 30 32 33 35 35 35 35 35 35 37 39 41 42 43 44 46 46 45 45 45 45 45 45 46 44 42 41 42 43 43 40 37 36
22 23 23 23 24 25 25 25 26 26 27 27 26 25 24 24 23 22 22 21 21 21 21 22 22 24 26 28 29 31 32 33 34 36 37 37 36 36 35 37 39 41 41 43 44 46 46 46 46 44 44 45 44 44 44 42 43 45 45 44 42 40
24 25 25 24 25 25 26 26 27 28 28 28 28 26 26 25 24 23 23 23 23 23 24 24 24 25 25 27 28 30 31 33 34 35 37 38 38 37 36 36 37 39 40 41 42 44 45 46 46 44 44 44 43 44 43 42 43 44 45 45 44 45
26 27 26 25 25 26 27 27 28 29 29 29 28 27 26 26 25 24 24 24 25 25 26 26 26 27 27 27 28 29 30 32 34 35 36 37 38 39 39 38 38 38 38 39 41 43 44 45 46 45 45 44 44 43 42 41 41 42 44 45 45 47

ECMWFFLT2_700_spd_015.txt.gz
Wind_Speed
11 10 9 9 10 12 13 14 13 12 11 10 10 11 10 10 10 10 8 8 8 8 8 8 8 9 8 7 6 5 6 7 9 10 11 13 15 16 16 17 18 21 26 32 34 33 32 31 30 29 29 29 28 28 29 27 26 25 24 23 22 20
12 11 11 10 10 11 12 13 13 13 12 11 11 11 11 10 10 9 7 7 7 7 8 7 6 7 8 7 6 5 4 6 8 9 10 12 14 14 14 15 16 19 25 32 35 35 33 31 30 29 29 28 28 28 28 27 26 25 24 23 23 21
12 12 12 12 12 12 12 12 12 12 12 12 11 11 11 11 10 8 7 6 7 8 8 7 5 6 7 6 5 3 3 3 5 7 8 10 12 12 13 13 14 17 23 31 36 36 35 32 31 30 29 28 27 27 28 27 26 25 23 23 23 22
11 12 12 13 14 15 13 12 11 11 12 12 12 11 11 11 10 8 8 7 8 8 8 7 6 5 5 5 4 3 3 2 3 5 6 7 9 10 11 12 13 15 21 30 37 37 35 34 32 30 29 28 27 27 28 27 26 26 24 23 23 23
11 12 12 14 15 16 16 15 13 11 11 12 12 11 11 11 11 10 9 8 7 7 9 9 8 7 7 7 6 5 4 3 2 3 5 6 7 8 10 11 11 13 18 28 36 37 36 35 33 31 30 28 27 27 27 27 26 26 25 24 24 24
13 13 13 14 15 15 16 17 16 14 13 12 12 11 11 12 11 11 9 7 7 8 10 10 8 8 8 9 9 7 5 4 3 3 4 5 5 7 8 9 10 11 15 25 34 36 36 35 34 32 30 29 28 27 27 27 26 25 25 25 24 24
16 15 13 14 14 14 15 16 17 17 15 12 11 12 12 13 12 10 9 9 10 10 11 10 9 9 10 10 10 9 8 6 6 5 5 5 5 6 8 8 9 10 14 22 31 35 35 35 34 33 31 30 29 28 27 27 25 24 25 25 24 24
17 18 15 15 14 13 13 14 16 17 17 14 12 13 13 14 13 11 12 13 12 11 11 11 10 12 12 11 10 11 11 10 8 7 6 5 4 7 8 8 8 9 12 18 27 32 34 35 35 34 32 31 30 29 28 28 25 24 25 24 24 24
16 19 17 15 14 12 12 13 14 16 18 18 17 16 15 15 14 12 13 15 13 12 13 12 12 12 12 12 11 12 12 12 11 10 9 7 5 6 8 8 8 8 11 16 23 29 33 35 34 34 33 31 31 30 29 28 26 24 24 23 23 24
15 18 17 16 14 12 12 13 14 15 16 18 20 19 17 16 15 14 15 16 16 15 13 12 13 13 12 12 12 13 14 13 12 11 11 9 6 6 7 7 8 9 10 12 18 25 30 33 34 33 32 32 31 30 30 30 27 25 24 24 23 23
14 15 16 16 15 13 14 14 15 15 15 16 19 20 18 17 16 15 16 17 18 17 13 12 14 14 14 13 12 12 14 15 15 14 14 13 9 8 8 7 7 9 10 11 14 21 27 31 33 33 33 32 32 31 31 31 29 27 26 24 23 23
13 13 13 15 15 14 14 15 14 14 15 16 18 21 20 19 17 16 15 17 19 18 15 14 15 15 14 13 11 12 13 14 16 17 16 15 10 9 9 8 8 9 11 12 13 16 23 28 31 32 32 32 33 32 32 31 30 28 27 26 24 24
13 12 12 13 15 14 14 14 12 12 14 15 18 20 21 20 18 17 17 17 19 18 16 16 17 16 15 12 11 13 13 12 14 17 17 16 13 10 10 9 9 10 10 11 11 12 17 22 26 29 30 31 33 33 33 32 31 30 28 27 26 25
14 13 12 13 14 13 14 13 11 11 12 15 18 19 20 21 20 20 19 17 18 18 18 16 17 17 15 13 12 12 14 14 14 14 14 17 16 12 10 10 10 11 10 10 11 12 13 14 18 22 26 29 31 33 33 33 33 32 30 28 27 27
15 14 13 13 14 13 13 13 12 12 12 14 16 17 19 21 22 22 21 19 19 19 18 17 17 17 15 15 15 14 15 16 15 14 12 16 16 12 11 11 11 11 11 11 12 12 13 13 13 15 20 25 28 30 32 33 33 33 32 31 29 28
15 15 14 14 14 13 13 13 13 13 13 13 14 15 18 20 21 22 22 20 20 19 19 18 18 16 15 17 18 16 16 17 17 16 14 15 14 12 13 13 12 11 11 12 13 12 12 13 14 14 17 20 24 27 29 30 32 33 34 33 31 29
14 15 15 15 14 14 14 14 14 14 13 13 13 14 17 18 19 19 21 23 22 20 20 19 19 17 15 16 18 17 17 19 20 18 16 16 15 14 15 14 14 13 12 12 12 12 13 13 14 16 17 19 21 24 26 27 28 30 33 34 33 32
12 14 14 15 15 14 14 14 14 14 13 13 13 14 15 17 17 17 18 22 23 24 23 22 21 19 17 17 18 19 19 20 20 18 18 19 18 18 17 17 17 16 14 13 11 13 15 15 15 17 19 20 20 22 24 25 26 27 30 32 34 34
12 12 13 14 15 14 14 13 13 12 12 12 12 13 14 15 16 15 16 18 21 25 27 26 24 22 20 18 18 18 19 21 20 19 20 21 20 20 20 19 19 18 16 15 14 14 16 17 16 17 18 18 19 20 22 23 24 25 26 28 32 34
12 12 12 13 13 13 12 12 12 11 11 11 11 12 13 13 14 14 15 16 18 20 23 25 27 27 25 23 21 20 20 21 21 21 22 23 21 21 21 20 20 19 19 19 18 17 17 18 17 17 18 18 19 18 18 20 22 23 23 25 27 30
12 11 12 12 11 11 10 12 11 9 10 10 10 11 11 11 12 13 13 14 15 16 17 20 23 26 27 27 26 25 24 24 24 23 24 22 19 20 21 21 21 20 20 21 20 19 19 18 18 18 18 20 21 19 18 17 19 21 22 23 23 26
12 11 11 12 12 10 10 12 10 8 9 9 9 10 10 10 11 12 12 13 13 14 15 16 18 20 22 24 26 27 28 29 28 28 27 24 20 21 21 22 22 21 21 22 21 21 21 21 22 21 20 21 23 22 20 19 19 19 20 22 22 23
12 11 11 12 12 12 11 12 12 9 10 10 9 9 9 9 10 10 11 12 12 14 14 15 16 17 18 20 21 23 26 28 29 31 31 28 25 24 23 23 23 22 23 24 23 23 24 24 23 23 23 24 24 23 22 22 21 19 18 20 22 23
12 11 11 11 11 12 11 12 12 10 10 10 9 9 9 9 9 9 9 9 10 12 13 14 14 15 15 17 18 19 21 23 25 27 29 29 29 28 27 27 25 24 25 26 25 26 26 26 24 24 26 26 26 26 26 25 25 22 20 21 21 22
12 12 10 9 10 11 10 10 10 10 9 9 9 8 8 8 7 7 7 7 7 8 9 10 12 13 13 14 16 17 19 21 23 24 25 26 27 28 30 30 29 28 27 27 28 28 28 27 27 29 29 28 28 28 29 28 28 27 26 26 24 23
12 12 11 9 9 9 8 8 8 8 8 7 7 7 7 7 8 7 7 6 6 6 6 7 8 9 10 11 13 15 17 19 21 22 23 24 25 26 27 30 31 31 30 31 31 30 29 29 31 33 32 30 30 31 30 30 30 30 29 29 27 25
12 12 11 9 9 8 8 8 8 8 7 6 6 7 7 7 8 9 9 9 8 8 8 8 8 8 8 8 9 11 14 16 18 20 22 23 24 26 27 28 29 30 31 33 34 34 32 32 34 34 32 31 33 34 33 32 32 32 31 30 29 28
11 11 10 10 10 9 9 9 9 9 9 8 8 8 8 8 9 9 10 10 10 10 10 9 9 9 9 9 8 9 11 13 16 17 19 20 22 24 26 28 29 29 30 32 34 35 35 36 36 35 33 33 35 36 34 33 33 34 34 33 31 31
12 11 10 11 12 11 11 11 11 11 10 10 10 10 10 10 10 10 11 11 12 12 12 12 11 10 10 10 10 10 10 11 13 14 16 18 20 21 23 25 27 28 29 30 31 32 34 36 37 37 37 36 36 37 36 35 34 35 36 36 35 34
12 12 11 12 13 13 12 12 12 12 12 11 12 13 13 12 12 13 13 13 13 12 12 13 13 13 12 12 11 11 11 11 12 13 14 16 18 19 21 22 24 26 27 29 30 31 32 33 35 37 39 39 39 39 38 37 35 34 36 38 37 36
13 13 13 13 14 15 14 13 13 14 14 14 15 16 16 15 15 15 14 14 13 12 12 12 13 14 14 15 14 13 13 12 12 13 13 15 16 17 19 21 22 23 24 26 28 30 31 32 33 35 37 39 40 41 41 39 37 35 36 37 37 37
14 14 15 14 15 16 16 15 15 15 16 16 16 17 18 18 17 16 16 15 14 14 13 13 13 13 14 15 16 16 16 15 14 13 13 14 15 16 17 19 20 21 22 24 26 27 29 30 32 33 34 37 38 39 40 40 39 38 37 37 38 38
15 15 16 16 16 16 16 16 15 16 16 16 16 17 18 18 17 17 17 16 16 15 15 15 14 14 15 15 16 17 17 17 17 16 15 15 15 16 17 17 18 19 20 21 23 25 26 28 30 30 31 33 35 36 38 38 38 40 40 39 39 41
16 16 17 17 17 16 16 16 16 16 16 16 17 17 18 18 17 17 17 17 17 17 17 17 16 16 16 17 17 16 17 17 17 18 18 18 17 17 18 18 18 18 19 20 21 23 24 26 28 29 30 31 32 34 35 34 34 37 39 40 41 42
18 17 17 17 17 16 16 17 17 17 17 17 17 17 17 18 18 18 18 18 18 17 18 18 18 18 18 18 19 18 18 17 18 18 18 19 19 19 20 20 20 19 19 19 20 22 22 24 26 28 29 30 31 32 33 32 32 32 33 36 38 39
19 18 18 17 17 17 18 18 19 19 18 18 18 18 17 18 18 17 17 18 18 18 18 18 18 19 19 20 20 20 20 20 20 20 20 21 21 21 21 22 23 23 21 21 21 21 21 23 24 26 27 29 31 31 31 32 33 33 32 32 33 34
20 20 20 19 18 19 19 20 20 20 20 19 19 18 18 18 18 17 17 17 18 18 18 18 19 19 20 21 21 22 22 22 22 22 22 23 23 23 24 23 24 24 24 24 24 23 22 23 24 25 26 27 29 30 30 31 33 34 35 34 33 34

ECMWFFLT2_700_spd_021.txt.gz
Wind_Speed
9 10 11 11 12 12 12 12 11 11 11 11 11 11 11 11 11 11 12 12 11 11 12 12 12 13 14 15 15 15 15 13 12 12 12 12 13 14 16 19 20 20 24 27 27 28 29 27 25 24 24 26 27 27 27 26 25 24 23 22 21 21
9 10 11 12 12 12 12 12 12 12 11 11 12 12 11 12 12 12 12 12 11 11 12 12 13 13 14 14 14 14 13 11 10 10 10 10 12 14 15 18 20 19 22 25 27 28 28 28 26 24 24 25 26 27 27 26 25 25 24 22 20 19
9 10 11 12 13 13 13 12 13 12 12 12 12 12 12 13 12 11 11 10 10 11 12 12 12 13 14 14 13 12 11 10 8 8 8 9 11 13 15 17 20 20 21 24 27 28 28 29 27 25 24 24 25 26 27 27 25 24 23 22 20 19
10 10 11 12 13 13 14 13 13 13 13 12 11 12 12 12 11 11 10 9 9 10 11 11 12 12 12 12 12 11 10 9 7 7 8 9 10 11 13 16 19 20 20 22 25 28 29 29 28 27 26 25 25 26 27 27 25 24 23 22 21 19
10 10 10 11 12 13 14 14 14 15 15 12 11 11 10 10 11 10 9 8 8 9 10 11 12 12 11 11 12 11 10 9 8 7 8 9 10 10 12 15 18 19 20 21 24 27 29 30 30 29 27 26 26 26 27 27 26 25 25 23 22 20
10 10 10 11 11 12 13 14 15 16 16 14 12 11 9 9 10 10 9 8 8 8 9 11 12 12 12 12 12 11 10 9 8 7 7 8 9 10 11 14 16 18 19 21 23 26 29 31 32 31 29 28 27 27 27 27 27 26 25 25 24 22
10 10 10 11 11 11 12 13 14 15 15 14 14 13 11 10 10 10 9 9 9 9 10 11 12 12 12 12 13 12 11 10 9 9 8 7 8 9 10 13 15 16 17 19 21 23 28 31 33 33 32 30 29 28 27 27 27 27 26 26 25 24
10 10 10 10 11 11 11 11 12 14 14 15 15 15 14 13 11 11 11 10 10 11 12 12 13 13 13 13 13 13 13 11 10 10 10 9 7 7 9 10 13 15 16 16 18 21 25 30 34 35 34 32 31 29 28 27 27 27 27 27 26 25
10 10 9 10 10 11 12 12 12 14 14 15 16 15 15 14 13 12 11 11 12 13 13 14 14 14 14 13 13 14 14 13 11 11 11 9 7 7 8 8 10 13 14 15 16 18 23 28 33 36 36 35 33 31 29 28 27 27 27 28 28 27
9 8 8 9 10 11 12 13 14 14 14 15 15 15 15 14 14 13 13 13 13 14 15 15 16 16 16 14 14 14 15 15 14 13 12 10 9 8 8 8 8 10 12 14 14 16 20 26 31 35 37 37 35 33 31 29 28 27 27 28 29 28
9 7 7 8 10 11 12 13 14 15 15 15 14 14 13 13 15 15 14 15 15 16 17 17 17 17 17 17 16 15 16 16 13 13 14 13 12 11 10 9 9 9 10 11 13 15 17 23 30 35 37 38 37 35 32 30 29 27 26 26 28 29
9 8 8 8 9 11 12 12 14 15 16 16 15 14 15 15 17 17 16 17 17 17 18 19 18 18 19 19 18 17 17 16 14 15 16 15 14 13 12 11 10 9 9 10 11 12 14 19 27 34 37 38 37 36 33 31 29 28 26 25 26 27
9 10 10 10 10 10 11 12 13 14 16 17 17 17 17 18 18 18 18 18 19 19 19 20 20 20 21 20 20 20 19 16 15 17 16 15 14 15 14 13 12 10 9 9 9 10 12 14 21 30 35 37 37 36 33 32 31 29 27 25 25 25
9 10 11 11 11 11 11 12 13 14 15 16 17 18 18 19 19 19 19 19 19 19 20 20 21 22 22 22 22 20 17 16 17 18 16 13 14 16 17 15 15 13 11 10 9 9 11 12 16 24 31 35 35 34 33 31 30 29 28 26 25 25
11 11 11 12 12 13 12 13 13 14 14 15 16 17 18 19 20 20 21 20 21 21 20 20 22 23 23 24 21 17 16 18 19 18 16 14 13 13 14 15 16 16 13 10 9 9 10 11 13 18 25 30 32 32 32 31 30 29 28 27 26 25
13 12 12 12 13 14 13 13 13 13 13 13 14 15 16 18 19 20 21 22 23 22 21 21 22 23 23 23 20 17 19 20 18 17 15 15 14 10 8 12 16 18 15 11 9 8 9 10 11 14 20 25 29 31 32 30 29 29 28 28 27 26
14 14 13 13 13 13 13 13 12 12 12 13 13 14 15 16 17 18 19 20 21 21 22 23 23 23 23 22 20 19 21 19 15 14 15 15 16 12 9 10 14 18 18 15 12 10 9 9 11 13 16 21 26 29 30 30 28 28 29 28 28 27
12 13 13 12 12 12 11 11 11 12 12 12 12 13 14 15 15 16 17 18 19 20 23 25 26 25 23 22 22 22 21 18 14 14 16 16 17 15 12 12 13 16 19 18 14 13 11 11 12 13 14 17 21 24 27 28 27 26 27 27 28 28
14 13 11 11 10 10 10 10 10 10 11 11 12 12 13 13 14 15 16 17 18 20 22 25 26 27 25 23 22 22 21 17 16 17 16 16 18 17 16 16 14 13 15 17 15 15 15 14 13 13 13 14 16 18 21 23 23 23 23 24 26 27
16 15 11 10 8 8 8 8 8 9 9 10 10 11 12 13 13 14 15 16 17 19 20 22 23 25 25 24 22 21 20 19 20 20 17 15 17 19 19 18 17 15 14 15 16 17 17 15 14 13 13 13 13 14 15 17 19 19 19 20 22 24
15 16 13 9 8 7 7 7 7 7 8 8 9 10 11 11 12 12 13 14 15 16 18 19 20 22 24 25 24 23 21 21 21 20 16 15 17 19 19 19 20 21 18 16 18 19 18 17 16 15 14 13 13 12 13 14 15 15 15 16 18 20
15 16 14 9 7 7 7 6 6 6 7 8 8 9 10 10 11 11 12 12 13 14 15 16 17 19 21 24 25 25 25 25 24 21 18 17 17 17 19 20 19 20 20 20 20 20 18 18 19 19 16 14 13 12 13 13 13 14 14 14 15 17
14 15 15 10 6 6 7 7 6 6 7 7 8 8 9 10 10 10 11 12 12 13 13 14 14 15 17 19 21 22 24 26 26 25 23 21 20 19 20 21 18 18 20 21 21 20 20 20 20 20 18 15 14 14 14 14 15 15 15 14 14 16
13 15 14 10 6 6 7 6 6 5 5 5 6 6 7 7 8 8 9 10 11 12 13 13 13 13 14 15 16 18 20 23 24 25 25 25 24 23 23 22 20 20 20 20 21 21 21 22 21 20 19 18 18 18 17 17 17 17 16 16 15 15
12 14 14 9 7 6 6 6 5 4 3 2 2 2 3 3 3 4 5 6 8 9 11 12 12 12 13 14 14 15 17 19 20 22 23 25 25 26 26 25 24 23 22 22 21 21 23 24 22 19 19 20 21 21 20 20 19 18 18 18 17 17
11 13 12 9 7 6 5 5 4 3 2 1 1 1 1 1 1 3 3 3 4 6 7 8 9 10 10 12 13 15 16 17 18 19 20 22 23 25 26 27 28 28 27 26 25 24 24 24 23 21 21 22 22 22 22 23 22 21 20 20 20 19
11 13 11 8 8 6 5 5 4 4 3 2 2 2 2 2 3 5 5 5 5 5 5 6 6 6 7 8 10 12 14 16 17 18 19 20 22 23 24 25 27 29 30 30 29 28 27 25 24 24 24 24 24 24 24 24 24 24 23 23 23 22
11 12 10 8 8 7 5 5 4 4 4 3 4 4 4 5 6 7 7 7 7 7 7 6 6 6 5 6 6 8 10 12 14 15 17 18 20 21 23 24 26 27 28 29 30 30 30 29 28 27 26 26 26 26 27 27 27 27 27 27 26 24
11 12 9 8 8 8 7 6 5 5 5 5 5 5 6 6 8 9 9 9 10 10 10 9 9 9 8 7 6 6 7 9 10 11 12 14 16 18 20 22 24 25 26 27 28 29 30 30 31 31 31 31 30 30 30 31 31 31 32 32 31 28
12 11 9 9 9 9 8 7 6 5 6 6 7 7 7 8 10 11 11 11 11 11 11 12 12 11 11 10 9 8 8 8 9 10 10 10 11 13 16 18 20 21 23 25 26 27 28 29 30 32 33 34 35 35 35 35 35 35 35 36 35 33
12 11 10 10 10 10 9 8 7 7 7 7 8 9 9 11 12 13 13 12 12 11 11 12 13 13 13 12 11 10 10 10 10 10 10 10 10 11 12 14 15 17 18 20 22 24 25 27 28 30 32 33 34 35 36 38 38 38 38 39 39 38
13 12 10 11 11 11 10 9 9 8 8 9 9 10 10 11 12 13 13 12 12 11 11 11 12 13 13 14 13 12 12 12 12 12 11 11 12 12 12 13 14 15 16 17 18 20 21 22 24 26 28 30 32 33 34 36 38 39 40 41 42 43
11 11 11 11 12 13 12 11 10 9 10 11 11 10 10 11 12 12 12 11 11 11 10 11 11 12 13 14 14 14 14 13 13 13 13 13 13 13 14 14 15 15 16 16 17 18 19 19 20 22 24 25 27 29 31 34 36 38 39 40 41 42
7 9 11 12 13 14 14 13 12 11 11 12 11 11 10 11 12 12 11 11 11 11 11 11 12 12 13 14 14 15 15 15 15 16 16 16 16 15 16 16 16 16 17 17 18 19 19 19 20 21 21 22 23 25 27 30 33 36 37 38 39 41
6 7 9 12 14 15 15 14 13 12 12 12 12 12 11 11 12 11 11 11 12 12 12 12 12 13 13 14 14 15 16 16 17 17 17 18 18 18 17 18 18 18 19 19 19 20 21 21 22 22 21 22 22 23 24 26 29 31 34 36 37 39
7 7 8 9 12 15 16 15 15 14 13 13 13 13 12 12 12 12 12 12 12 13 13 12 12 13 13 14 14 15 16 17 17 18 18 18 18 18 19 19 20 20 21 21 21 22 22 23 24 24 24 23 23 24 25 26 27 28 30 32 33 35
9 9 8 7 9 12 16 17 16 15 15 15 15 14 13 13 14 13 12 13 13 13 13 13 13 13 14 14 14 15 16 16 16 17 17 17 17 18 18 19 20 21 21 22 23 24 24 24 25 25 26 26 25 26 27 27 28 29 30 30 31 32

ECMWFFLT2_700_spd_024.txt.gz
Wind_Speed
7 8 9 10 11 11 11 10 11 11 10 10 11 12 12 11 11 10 10 9 10 11 10 10 9 10 11 13 14 15 16 16 16 16 15 14 13 13 13 15 19 20 19 19 21 26 28 27 26 24 23 25 26 26 26 25 25 24 24 23 23 21
8 9 10 11 12 12 11 11 11 11 10 10 10 11 11 10 10 10 10 10 11 11 10 10 10 11 12 13 15 16 15 15 14 14 14 13 12 12 11 13 17 20 20 20 21 25 28 27 26 24 23 24 26 27 26 25 25 24 24 24 23 22
9 10 11 11 12 12 11 11 11 11 11 11 11 11 11 11 11 11 10 11 12 11 10 9 10 12 13 14 15 15 14 13 12 12 11 11 10 10 10 11 15 20 20 19 20 23 27 27 26 25 23 24 25 26 26 25 24 24 24 23 23 22
10 10 11 11 12 12 12 11 11 11 10 10 10 11 11 11 12 11 11 11 12 10 9 10 11 12 12 13 14 13 13 12 10 10 11 10 9 8 9 10 14 18 19 18 19 22 25 27 27 26 24 23 25 26 26 26 25 24 24 23 22 21
10 11 11 11 12 12 12 12 12 11 10 10 11 11 11 11 11 11 11 11 11 10 9 10 12 13 13 14 14 13 12 11 11 11 11 11 8 7 8 10 13 16 18 18 19 21 24 27 27 26 25 23 24 25 26 26 25 25 24 23 22 21
11 11 11 11 12 12 12 12 13 11 10 12 13 13 13 12 11 11 11 10 11 11 11 12 13 13 14 14 14 13 12 12 12 11 11 11 8 7 8 9 11 15 18 19 20 20 23 26 27 27 25 24 24 24 25 26 26 26 25 24 23 21
12 12 12 11 12 12 11 12 13 12 13 15 15 15 14 13 12 11 10 11 11 12 12 13 13 14 14 13 13 13 13 12 12 12 12 11 9 7 8 8 10 12 16 19 20 20 21 24 27 27 27 25 24 24 25 25 26 26 26 25 24 23
13 12 12 12 12 12 11 11 13 13 14 16 16 15 14 14 14 13 12 12 12 13 13 14 14 14 14 14 15 15 14 13 13 13 13 12 9 7 7 8 9 10 13 16 19 21 21 22 25 28 28 27 25 25 25 25 26 26 26 26 25 24
13 12 12 11 12 12 12 12 12 12 14 16 16 16 15 14 15 16 14 13 13 13 14 15 16 16 16 16 17 16 15 14 14 15 14 12 10 8 7 7 8 9 10 12 16 19 21 22 24 27 29 29 27 27 27 26 26 26 27 26 26 25
12 11 11 11 12 13 13 13 13 14 16 17 17 17 16 15 16 16 15 14 14 14 14 16 17 18 17 18 18 15 13 13 16 17 14 12 11 8 7 7 7 7 9 10 12 16 20 22 24 26 28 30 29 29 28 28 27 27 27 27 27 27
11 11 11 12 12 13 13 13 14 15 17 17 18 18 16 16 16 14 15 15 16 15 15 17 19 18 18 19 18 13 10 13 17 16 14 14 13 11 9 9 8 7 7 8 10 13 17 21 23 25 27 29 30 31 30 29 28 27 27 27 27 28
10 10 11 12 12 12 12 13 14 15 16 17 18 17 15 16 15 15 16 18 18 17 16 18 19 19 18 18 16 12 13 16 15 12 13 15 15 14 12 11 11 10 9 7 8 10 13 18 22 25 27 28 30 32 32 31 29 28 27 26 27 27
10 10 11 12 12 12 12 13 14 15 16 16 17 17 17 18 18 18 17 19 19 18 17 18 20 21 19 17 16 15 16 16 13 11 13 14 13 14 15 14 13 13 11 9 7 8 10 13 18 23 27 28 29 31 32 31 30 29 27 26 25 26
10 10 11 12 12 13 13 13 14 15 16 15 16 17 18 20 21 20 19 19 20 19 18 18 20 22 19 18 20 19 17 14 13 14 14 12 10 13 16 16 16 15 14 11 9 8 9 11 15 19 24 27 29 30 31 32 32 30 28 27 26 25
12 12 13 13 13 13 13 14 15 16 16 15 15 16 18 19 20 21 21 20 20 19 19 19 21 21 20 21 22 20 17 15 15 17 16 13 12 15 15 15 17 17 16 15 11 9 10 11 13 16 20 24 26 28 29 31 32 31 29 27 26 25
13 14 14 14 14 14 14 15 16 16 16 16 15 16 17 18 19 21 23 23 23 22 21 21 22 22 21 22 21 19 17 17 17 17 17 15 16 17 14 13 15 15 16 17 14 10 10 11 13 14 17 20 23 25 26 28 30 30 29 28 27 26
8 10 12 13 14 14 15 16 16 17 17 17 16 16 17 18 18 19 22 24 25 26 25 25 24 23 23 23 20 18 18 19 18 17 18 17 17 18 15 13 12 12 15 17 16 13 11 11 12 12 15 17 20 23 24 26 28 29 29 29 27 26
6 7 7 9 11 12 13 14 15 16 16 16 16 16 17 17 17 18 20 21 23 25 26 27 26 25 24 23 21 20 20 20 18 19 19 16 15 18 16 14 13 12 13 15 16 16 15 13 12 11 12 15 17 20 22 24 26 28 29 28 27 27
10 10 10 8 7 8 9 10 11 13 14 14 14 15 16 17 17 17 18 19 19 20 22 24 24 24 24 23 22 23 23 21 19 20 19 15 14 16 16 15 15 14 14 14 15 17 19 17 15 14 12 12 13 15 17 20 23 26 27 27 27 27
11 12 12 11 8 7 7 7 7 8 10 12 13 13 14 16 16 16 16 16 17 17 17 18 19 21 23 23 23 25 26 23 21 21 18 17 16 15 16 16 16 16 17 16 14 15 20 20 19 18 15 11 11 12 13 15 18 21 23 24 25 26
12 13 13 13 10 7 6 5 5 5 6 8 10 11 13 14 15 15 14 14 15 14 14 14 15 17 19 20 22 24 27 25 23 21 18 18 16 15 17 16 15 17 18 17 14 14 17 19 18 17 15 13 11 11 11 11 13 15 17 19 21 22
12 13 14 13 10 8 7 5 5 4 4 5 7 8 10 12 13 13 13 13 13 13 12 12 13 14 15 16 18 21 24 25 24 23 21 19 18 16 15 15 15 16 17 16 16 16 16 16 15 14 15 15 13 12 11 11 12 13 14 15 16 17
12 12 14 13 10 8 7 6 5 4 4 4 5 7 8 10 11 11 11 11 12 12 12 11 12 12 13 14 15 17 20 22 24 25 24 23 22 19 17 16 16 16 16 16 16 16 16 16 16 15 15 17 15 14 13 12 12 12 13 14 14 15
11 11 13 13 10 8 7 6 4 3 3 3 4 6 7 9 9 9 9 9 9 10 11 11 11 12 12 13 13 14 16 19 21 23 24 24 25 23 22 21 19 17 17 17 17 16 16 15 16 16 15 16 16 15 16 15 14 13 13 13 13 14
9 9 12 12 9 8 8 7 5 3 2 1 2 3 5 6 6 5 4 5 6 7 8 9 10 11 12 12 12 13 14 15 17 19 20 21 22 23 23 23 23 21 20 19 19 18 17 16 15 16 16 16 16 15 17 18 16 16 16 15 14 14
8 8 11 10 8 7 7 7 4 3 2 1 0 0 1 2 2 1 3 4 5 5 5 6 7 9 10 10 11 12 13 14 15 16 16 17 18 19 20 22 22 23 23 22 22 20 19 18 17 17 18 18 18 17 17 17 17 19 20 18 16 16
8 8 9 9 7 6 6 6 4 3 2 1 0 0 0 1 1 3 5 6 6 5 5 5 5 6 7 8 8 9 11 12 13 14 15 16 16 17 18 19 20 21 22 23 24 23 22 22 21 20 20 20 20 20 19 19 19 21 21 19 18 19
10 8 8 7 5 5 5 6 5 4 4 3 2 2 2 2 3 5 7 8 8 7 6 5 5 6 6 6 6 7 8 9 10 12 13 14 15 16 17 17 18 19 20 21 22 23 24 25 25 25 25 24 23 23 22 21 22 23 23 21 20 21
10 8 7 6 5 5 6 6 5 5 5 4 4 3 3 4 5 7 8 10 10 10 9 7 7 7 7 7 7 7 7 7 8 9 10 11 12 13 14 15 16 17 18 19 20 21 22 24 25 26 27 28 27 27 26 25 24 25 25 25 23 24
10 8 7 6 5 5 6 6 6 6 6 5 5 4 4 5 7 9 10 11 11 11 11 10 9 9 9 9 9 9 8 8 8 8 9 10 10 11 12 13 14 14 15 16 17 18 19 20 22 23 25 26 28 29 29 29 29 29 29 30 29 28
10 9 7 6 6 6 7 6 7 8 7 6 6 6 6 7 9 10 11 12 12 11 11 11 10 10 10 10 10 10 10 9 9 9 9 9 10 11 11 12 12 13 13 14 15 15 16 17 18 19 21 23 24 26 28 30 31 32 33 34 34 34
6 8 6 6 6 7 7 7 7 8 8 8 7 7 7 9 10 10 11 12 12 11 10 10 10 10 11 11 11 11 11 10 10 10 10 10 11 11 11 12 12 12 13 13 14 14 14 15 16 17 18 19 21 23 25 26 28 30 32 34 35 35
1 4 5 6 7 7 7 8 8 8 9 9 9 8 8 9 10 11 11 12 12 11 10 10 10 11 11 11 12 12 11 11 11 11 11 11 12 12 12 13 13 13 13 14 14 14 14 15 15 16 17 18 19 20 21 22 23 24 26 28 31 32
1 2 3 4 6 7 8 9 9 10 10 11 10 10 9 10 11 11 11 11 11 11 11 11 11 11 12 12 12 13 13 12 12 12 12 13 13 14 14 15 15 15 15 15 16 15 16 16 16 16 17 18 19 19 20 21 22 23 23 23 25 28
2 2 2 2 4 6 8 10 11 11 11 12 12 11 11 10 11 12 12 11 11 11 11 11 12 12 12 12 13 13 14 14 14 14 14 15 15 15 16 17 17 17 17 17 17 17 17 17 17 18 18 19 19 20 21 22 22 23 24 24 24 25
4 4 3 3 3 4 6 10 11 12 12 13 13 13 12 11 11 13 13 12 12 12 11 11 11 12 12 13 13 14 14 15 15 16 16 16 16 17 17 17 18 18 18 18 18 18 18 18 18 18 19 20 21 21 22 22 23 24 25 25 25 26
8 6 5 4 4 4 4 7 9 12 13 14 14 13 13 13 14 15 15 14 14 13 12 12 12 12 13 13 14 14 14 15 15 16 16 17 17 17 17 17 18 18 18 18 18 18 18 18 18 18 19 19 20 21 22 23 24 24 25 26 27 28

ECMWFFLT2_700_spd_030.txt.gz
Wind_Speed
7 7 8 9 9 9 9 10 11 11 11 11 12 12 13 13 13 13 13 13 12 12 12 10 10 10 9 9 9 8 8 9 10 11 11 10 10 11 10 8 7 7 8 13 19 23 27 29 28 28 27 26 27 27 28 29 29 29 28 27 26 25
6 6 8 9 9 9 10 11 11 12 13 13 13 13 14 14 14 14 14 14 12 13 13 11 9 9 8 9 9 8 8 9 9 10 10 9 9 9 10 9 8 7 8 11 17 21 24 29 30 29 28 27 26 26 26 28 29 28 28 27 26 26
6 6 8 9 10 11 11 12 13 13 13 13 13 13 14 15 15 14 14 14 14 12 11 10 6 6 8 8 8 8 9 8 8 9 9 9 9 8 8 9 8 7 7 8 15 19 21 27 30 30 29 28 27 26 25 27 28 28 28 28 27 27
6 6 7 9 10 11 12 13 14 12 12 13 11 12 14 15 14 14 14 13 14 11 11 12 7 5 7 7 8 8 8 8 8 9 9 9 8 8 8 10 9 6 5 7 12 17 20 26 31 30 30 29 28 27 25 26 27 27 28 28 27 27
4 6 7 9 11 12 13 12 11 10 11 12 9 10 13 14 12 13 13 13 13 11 12 12 8 7 7 7 7 7 7 7 8 9 8 9 7 7 9 9 8 5 4 6 10 15 19 24 29 30 30 30 28 27 26 26 26 26 27 28 27 27
5 7 8 9 11 13 14 12 10 9 11 11 8 10 12 12 13 12 13 14 13 11 13 12 8 8 8 8 9 7 7 7 8 8 8 10 7 7 8 8 8 6 4 4 7 13 18 21 27 30 30 29 29 28 27 26 26 25 25 27 27 27
7 8 8 9 10 11 13 13 12 11 12 12 10 11 12 13 15 14 14 15 14 12 12 13 10 9 9 10 9 7 7 7 8 9 9 10 9 7 8 8 8 7 6 5 6 10 15 18 24 29 30 29 29 28 27 25 25 25 25 25 26 27
9 9 9 9 10 12 14 14 14 13 13 14 13 14 15 16 17 18 17 16 14 12 12 13 11 11 11 10 8 6 8 9 10 10 9 10 9 8 9 9 8 8 8 7 7 9 12 15 20 26 29 29 28 28 27 26 25 25 25 24 25 27
10 10 11 11 11 13 14 14 14 15 15 15 15 18 20 19 20 21 19 17 14 12 13 13 11 12 12 10 8 8 10 12 11 10 10 10 10 9 9 9 9 9 9 8 7 8 11 14 17 23 28 29 29 29 28 27 26 26 26 25 24 26
10 10 10 10 11 12 12 13 14 15 16 16 18 20 22 22 22 21 19 18 14 13 14 13 12 13 13 11 10 11 12 12 10 10 11 11 11 10 9 10 10 9 8 8 8 7 9 13 15 19 25 29 30 30 29 27 27 27 27 27 25 25
10 10 10 10 11 12 12 12 13 14 15 17 18 20 21 22 22 21 19 18 15 14 14 14 14 15 14 13 13 13 13 12 10 9 10 10 11 11 10 10 11 10 9 8 8 7 7 10 14 17 21 27 30 31 30 29 27 27 26 27 27 25
8 9 10 10 11 12 12 13 14 14 15 16 18 19 20 21 22 22 20 18 16 16 15 14 15 17 17 16 15 15 13 12 11 9 10 10 11 11 10 11 12 12 12 11 10 8 7 8 11 14 17 22 27 30 31 30 28 27 26 27 28 27
7 8 9 10 11 12 13 14 14 15 16 16 17 18 20 21 22 23 23 20 17 18 17 16 17 19 19 17 16 16 14 13 12 11 11 12 11 11 11 12 13 13 14 14 12 10 9 9 9 12 15 18 23 28 31 31 30 29 27 27 28 28
6 8 10 11 12 13 13 14 15 16 16 16 17 18 19 21 22 23 24 22 20 19 18 16 17 19 19 18 17 17 15 14 14 13 13 14 12 11 11 13 13 13 13 13 12 12 12 11 10 10 14 17 20 25 29 31 32 31 29 29 29 29
6 7 10 12 13 14 15 16 16 17 18 17 18 18 18 19 20 21 22 22 22 22 20 17 17 19 19 19 19 18 17 16 16 14 15 15 13 12 12 13 13 13 12 11 10 12 13 13 12 11 11 14 17 21 26 29 32 33 32 31 31 31
7 7 8 10 12 14 15 17 18 19 19 18 19 18 18 19 19 19 20 20 21 23 22 20 19 18 19 20 20 19 18 18 17 15 15 16 14 13 13 13 13 13 14 13 12 13 13 13 13 12 11 12 13 15 20 25 30 32 33 33 33 32
8 7 8 9 10 11 13 16 18 19 20 19 19 18 18 19 19 19 19 18 19 21 23 23 23 21 20 20 20 20 19 18 17 16 16 16 16 14 14 13 13 13 15 15 13 12 11 11 12 13 13 13 13 14 16 19 25 30 32 34 35 33
7 7 8 8 9 10 11 13 15 17 18 18 18 18 17 18 18 17 17 17 18 19 20 22 24 24 23 21 21 20 18 18 18 18 17 17 17 15 15 14 14 13 14 15 14 12 11 9 10 11 13 13 13 14 15 15 19 25 29 32 33 33
7 7 8 8 8 9 9 10 12 14 15 16 16 16 16 16 16 16 16 16 17 17 17 18 20 22 23 23 22 21 20 20 20 20 20 19 18 16 15 15 14 14 14 14 14 13 12 11 11 11 13 16 14 13 14 15 15 19 24 29 31 32
6 7 8 9 9 8 8 8 9 10 12 13 13 14 14 14 14 14 14 15 15 14 15 16 17 18 20 21 23 24 24 24 24 24 23 21 19 17 16 15 15 15 15 14 15 15 14 13 14 13 15 16 13 13 15 15 15 16 18 22 28 30
5 6 8 9 10 9 7 6 7 7 9 10 10 11 11 11 12 12 13 13 13 13 13 13 14 14 15 17 19 20 22 24 25 26 25 23 21 19 19 18 16 16 16 16 15 16 16 16 16 15 15 15 12 13 17 18 16 16 16 18 22 26
5 5 7 8 10 9 7 6 6 6 7 8 9 9 9 8 9 9 9 10 10 11 11 11 12 12 12 13 14 15 18 20 21 23 23 23 22 21 21 20 18 16 16 17 16 16 17 17 16 14 14 14 11 11 15 20 19 16 17 18 18 21
5 5 6 8 10 10 7 6 6 5 6 7 7 7 7 7 7 6 6 6 7 8 9 10 10 10 10 10 11 12 14 16 17 19 20 20 21 21 21 22 20 17 15 16 17 17 17 16 15 14 14 13 12 11 13 16 21 20 18 19 18 17
6 6 7 8 10 11 8 7 6 5 5 5 5 5 5 5 4 4 3 3 3 4 5 6 7 7 8 9 10 11 12 13 14 15 16 17 18 18 18 20 20 19 18 18 17 17 15 15 15 15 14 13 12 13 12 12 18 22 19 18 19 17
8 7 8 8 9 11 9 7 6 5 5 4 4 3 3 2 1 1 1 0 0 1 2 2 3 4 5 6 8 9 11 12 12 12 12 12 14 15 16 17 17 17 19 19 18 16 14 15 16 16 15 14 13 14 13 13 11 18 19 17 18 17
10 9 9 9 9 11 9 7 6 5 4 4 3 2 1 1 0 1 2 1 1 1 2 2 3 3 2 3 4 6 7 9 10 10 9 9 10 12 13 14 15 15 17 19 19 17 16 16 16 15 14 15 14 14 13 12 9 11 16 17 18 18
11 10 11 10 10 11 9 6 5 5 4 3 2 2 1 1 1 1 1 1 0 1 2 2 2 2 2 2 2 3 4 5 6 7 7 7 8 9 10 11 13 14 16 17 18 18 18 17 16 15 15 15 15 13 13 13 11 9 10 13 18 21
11 11 12 11 10 11 9 7 5 5 4 3 2 2 3 3 3 2 2 2 3 3 4 4 3 3 3 3 3 3 2 3 3 3 4 4 5 6 7 8 9 11 12 13 14 15 16 17 17 18 18 18 18 15 14 16 15 12 12 12 14 19
11 12 12 11 11 11 10 8 6 5 4 3 3 3 3 3 4 4 4 4 4 4 4 4 4 4 4 4 4 4 3 3 2 2 2 2 3 3 4 5 6 7 8 9 10 11 12 14 15 16 17 18 19 18 16 18 19 18 17 14 14 16
11 12 13 11 11 12 11 9 7 5 4 3 3 3 3 3 3 3 3 3 4 4 4 4 3 3 4 4 5 5 5 4 4 3 3 2 2 2 3 3 4 4 5 5 6 7 8 9 10 11 13 14 16 17 17 19 20 19 19 19 18 19
11 12 13 12 12 12 11 9 8 6 4 4 4 4 4 3 4 4 4 4 5 5 5 5 4 3 2 2 3 4 5 5 5 4 4 3 3 3 3 3 3 3 3 4 4 4 5 6 6 7 9 10 10 12 13 15 16 17 18 19 20 21
12 12 12 12 13 13 12 10 9 8 6 5 5 5 4 4 4 4 4 4 6 7 7 7 6 5 4 3 1 1 2 3 3 4 4 4 4 4 4 4 4 4 4 4 4 4 4 5 5 5 6 7 7 8 8 9 10 11 13 14 16 18
12 13 13 13 14 14 13 11 10 10 8 7 6 6 6 5 5 5 5 4 5 7 7 8 7 7 6 5 4 3 2 1 2 3 3 4 4 4 4 5 5 5 5 5 6 6 6 6 6 7 7 7 8 8 8 8 9 9 9 10 11 12
13 13 14 14 15 14 14 13 12 11 10 9 8 8 8 7 7 6 6 5 5 6 7 8 8 8 8 7 6 6 5 4 3 2 3 3 4 4 5 5 5 6 6 6 7 7 8 8 8 8 9 9 10 10 10 10 11 11 11 11 11 11
17 16 15 15 15 15 15 14 13 12 12 11 11 10 10 9 9 8 7 7 7 6 6 7 8 9 9 9 8 7 7 6 6 5 4 4 5 5 5 6 6 6 6 7 7 7 8 8 8 9 9 10 10 11 12 12 12 13 13 13 14 14
21 19 18 16 16 16 16 16 15 14 13 12 12 12 12 11 11 10 9 9 9 9 8 7 8 9 9 9 9 9 9 8 8 7 7 7 7 7 7 7 7 7 7 7 7 7 7 8 8 8 9 9 10 10 11 11 12 12 13 14 14 14
25 23 20 19 18 17 17 17 16 15 14 13 13 13 14 13 13 13 12 12 12 11 10 9 9 9 10 10 10 10 10 10 10 10 10 9 9 9 9 8 8 8 8 8 8 8 8 8 9 9 9 9 9 9 10 10 11 11 12 12 13 13

ECMWFFLT2_700_spd_033.txt.gz
Wind_Speed
10 9 9 9 11 12 11 10 9 10 10 10 11 12 12 12 13 13 14 13 10 10 10 10 10 9 10 11 9 9 9 9 9 8 7 7 7 5 3 3 4 6 10 15 21 25 27 28 28 28 29 29 28 27 26 27 27 28 29 29 29 26
10 9 8 10 12 12 11 10 10 10 10 12 12 13 14 13 14 15 16 14 11 10 10 10 11 10 10 11 10 10 9 9 9 8 7 7 7 6 4 2 3 5 9 14 19 24 27 28 29 29 29 29 28 27 26 25 26 27 28 30 30 27
11 10 10 11 12 12 10 10 10 10 11 13 14 14 15 14 16 17 15 15 11 8 9 9 8 8 9 11 10 11 10 9 8 6 7 7 7 6 5 4 3 4 7 12 17 21 25 28 29 29 29 29 28 27 26 24 25 25 27 30 30 28
11 11 11 10 11 11 10 11 10 10 11 12 14 14 14 16 18 17 13 14 11 5 6 7 6 6 8 10 11 11 11 9 7 6 7 7 7 6 5 4 3 3 5 9 14 18 22 24 27 30 30 29 29 28 26 24 25 25 26 29 29 29
9 9 9 8 9 11 10 11 10 10 11 12 14 13 14 17 19 17 11 11 11 5 4 6 7 7 7 9 10 10 10 9 8 8 7 7 7 7 6 5 3 2 2 5 9 14 19 21 25 29 30 31 30 30 28 25 24 24 27 29 28 28
9 8 8 8 9 10 11 11 10 11 12 12 14 14 15 18 17 14 10 10 11 7 4 6 7 8 8 8 9 10 10 10 10 9 8 8 7 7 7 5 3 1 1 3 6 11 16 20 23 24 27 31 31 30 29 27 24 23 26 27 27 28
12 10 9 9 9 11 13 13 12 13 13 13 14 15 15 17 16 12 10 10 11 8 7 9 8 8 9 10 11 11 11 11 11 10 10 9 8 8 8 6 4 3 2 3 6 11 14 18 21 20 24 30 31 31 31 29 25 23 25 26 26 27
12 13 13 12 9 11 15 14 14 14 12 12 13 15 16 17 15 11 11 12 13 11 10 11 9 9 10 13 15 14 13 12 11 11 11 9 9 10 9 7 6 5 4 4 6 10 13 18 20 20 23 27 31 32 31 30 27 24 24 25 26 26
11 13 16 17 12 11 14 13 14 14 12 13 14 16 19 17 12 11 13 14 14 13 11 11 10 10 11 13 16 13 11 11 11 12 10 10 11 10 10 10 9 7 6 5 5 7 12 16 19 21 22 24 28 31 31 31 28 24 22 23 24 26
11 13 16 18 16 14 14 13 12 13 12 13 13 14 17 15 10 11 14 14 14 14 13 12 10 12 13 13 15 12 10 12 12 11 10 10 12 10 10 10 9 8 7 5 5 6 10 14 18 21 22 22 25 29 31 31 29 25 23 23 24 25
10 12 13 14 15 14 15 13 11 13 13 12 12 13 15 13 11 13 15 16 16 15 13 13 11 12 14 13 14 15 12 13 13 11 9 9 10 10 10 10 10 9 8 7 5 5 7 11 16 19 21 21 23 28 30 30 29 28 25 24 23 25
8 9 11 12 13 13 13 13 12 12 13 11 11 13 14 12 11 13 15 16 17 15 13 14 13 13 13 13 15 17 14 14 14 11 10 9 8 8 9 10 11 10 9 9 8 7 6 7 12 16 20 21 22 26 30 29 29 29 27 25 23 24
6 7 9 11 12 12 13 13 13 13 14 13 12 12 13 13 12 12 14 15 17 17 16 16 15 14 14 14 16 18 16 15 14 12 11 11 10 10 9 10 11 11 11 11 11 10 9 8 8 12 17 19 20 24 29 30 29 30 29 27 25 24
7 7 9 11 12 13 13 14 14 14 14 14 14 13 13 14 12 12 13 14 16 18 19 18 17 15 15 15 17 18 18 17 15 14 13 13 13 12 11 10 10 11 11 11 11 10 11 11 10 9 13 16 18 21 26 30 30 30 30 30 28 25
8 8 8 9 11 13 14 15 15 15 15 15 14 13 13 14 13 13 12 12 14 16 18 19 18 17 15 16 17 18 20 19 17 17 16 15 14 13 13 12 11 12 12 12 12 10 9 10 11 9 11 14 16 18 21 27 30 31 31 31 31 29
8 9 9 9 10 12 13 14 15 15 15 15 15 14 14 15 14 14 13 13 13 14 15 16 17 18 18 16 16 18 20 20 19 19 17 14 15 15 13 13 13 13 12 12 12 12 10 9 10 10 11 13 16 18 19 22 27 30 32 31 31 31
9 10 10 10 10 11 12 13 13 14 15 16 17 17 16 16 16 16 15 14 13 14 14 14 15 16 18 18 17 19 20 19 19 19 18 15 15 15 13 13 14 13 12 12 13 14 13 12 12 12 13 15 16 18 18 19 23 27 31 31 29 29
9 10 10 10 10 10 11 12 13 13 13 15 16 16 16 16 16 15 14 14 14 14 13 13 14 14 16 17 19 21 21 21 20 19 18 15 15 15 14 15 15 14 14 13 14 14 15 15 14 14 14 15 16 18 19 18 20 23 27 32 32 30
9 9 10 10 10 10 10 11 11 12 12 13 13 13 14 15 14 14 14 14 15 15 14 14 13 14 14 15 17 19 21 22 21 20 17 15 16 16 16 17 16 15 15 14 15 15 16 16 15 15 14 13 15 18 20 19 19 20 21 27 33 34
10 9 10 10 10 10 10 10 9 9 10 10 11 10 11 12 12 12 13 15 15 16 15 13 13 14 14 14 16 17 19 19 20 20 18 16 18 18 18 18 17 16 15 15 16 17 17 17 17 17 15 14 13 14 17 17 19 19 19 21 26 31
10 9 9 10 11 11 11 10 8 8 8 8 8 8 9 10 10 10 12 13 13 14 13 12 12 13 14 14 15 16 17 18 19 20 19 17 18 19 18 19 19 18 17 16 17 18 18 18 18 16 15 14 12 12 14 15 18 21 20 19 20 24
10 9 8 8 9 11 12 10 7 6 7 7 7 7 7 8 8 8 9 10 11 12 12 11 11 11 13 13 13 14 15 16 17 18 18 17 16 16 17 18 20 20 19 18 16 16 17 17 16 16 15 13 11 11 12 12 15 21 22 19 17 19
9 9 7 7 8 9 12 10 7 6 6 6 6 6 6 7 7 6 6 7 7 8 9 9 10 10 12 13 13 13 14 15 15 15 17 16 13 13 14 15 18 19 19 16 14 14 14 15 15 16 15 13 11 12 12 11 11 13 21 22 20 18
10 9 8 8 8 8 11 11 7 5 5 5 6 6 6 6 5 4 4 3 4 5 5 6 7 8 9 11 12 12 13 14 14 14 15 14 12 11 10 11 13 15 16 15 14 14 13 13 14 14 14 13 13 12 12 12 10 9 14 23 23 20
10 9 9 9 9 8 10 11 7 4 5 5 5 5 4 3 2 2 1 2 2 2 2 3 4 5 6 7 9 11 12 13 14 14 13 12 11 10 9 9 10 11 13 14 14 15 14 13 13 13 13 13 13 13 12 13 11 8 8 17 25 24
11 10 10 10 10 9 10 11 7 3 4 4 4 4 3 2 1 1 1 1 1 1 1 2 2 2 3 4 5 7 9 10 11 12 12 11 10 10 9 8 9 10 11 11 11 12 13 13 13 14 13 13 13 13 12 11 11 9 8 8 18 25
12 11 11 11 11 9 9 11 7 3 3 3 3 3 2 2 2 2 2 2 2 2 2 2 2 2 2 3 3 4 5 6 8 8 8 9 8 8 8 8 9 10 11 10 10 10 11 10 11 12 11 12 13 12 11 12 12 10 8 7 8 16
13 12 12 12 12 10 9 10 7 4 3 3 2 2 2 3 3 3 4 4 4 4 4 4 4 4 4 4 4 4 4 4 4 5 5 5 5 5 6 6 7 8 9 10 10 11 11 11 11 11 10 11 13 13 12 13 13 12 11 9 6 7
15 14 13 13 12 11 9 10 8 5 4 3 2 1 2 3 3 4 4 3 3 3 3 4 4 5 5 5 5 5 5 4 4 3 3 3 3 3 3 4 5 6 6 7 9 10 10 11 12 12 12 13 14 14 14 14 14 14 13 12 10 7
17 15 14 14 14 11 9 10 9 7 5 4 3 2 1 2 2 2 2 2 1 1 1 1 2 3 4 5 5 6 6 5 5 4 4 3 3 3 3 2 3 3 4 4 5 7 7 8 10 11 12 14 15 15 15 15 16 15 14 13 14 13
19 17 16 16 15 12 10 10 9 8 7 6 5 4 3 2 2 2 2 1 1 2 2 2 1 1 1 2 4 4 5 5 6 6 5 5 4 4 4 3 3 3 3 3 3 4 5 5 6 7 8 9 11 11 12 14 15 14 14 14 15 16
21 18 18 18 16 13 11 11 10 10 9 7 6 6 5 3 3 3 3 2 2 3 3 3 3 2 2 1 1 2 3 4 4 5 5 5 5 5 5 5 4 4 4 4 4 4 5 5 5 5 6 6 7 7 8 9 10 10 11 12 13 15
22 20 20 19 16 14 12 12 12 12 11 9 8 7 6 5 4 4 4 3 3 3 3 4 5 4 4 3 2 1 1 2 2 3 3 4 4 5 5 5 5 5 5 5 6 6 6 7 7 6 7 7 6 7 7 7 8 8 8 8 9 10
24 22 21 19 16 14 14 14 13 13 12 11 10 9 8 6 5 5 4 3 3 2 2 3 4 5 5 5 4 3 2 1 1 0 1 2 2 3 4 4 4 4 5 5 6 7 7 7 8 8 9 9 9 9 9 9 9 9 9 9 9 9
27 24 22 20 17 15 15 15 15 14 14 13 12 11 10 8 7 6 6 5 5 4 2 2 2 3 4 4 4 5 4 4 3 3 2 2 1 1 1 2 3 3 3 4 5 5 6 6 7 8 8 9 9 9 10 10 11 11 11 11 11 11
30 27 24 22 18 17 17 17 17 16 15 14 13 12 12 11 9 8 8 7 7 7 6 5 4 3 2 2 3 4 5 5 5 5 5 5 4 4 3 3 3 3 3 3 3 3 4 5 5 6 6 7 8 8 8 9 9 10 11 11 11 12
33 30 27 24 21 19 19 18 18 17 16 15 14 13 13 13 12 11 11 10 9 9 9 9 8 7 6 5 4 4 5 6 6 6 7 6 6 6 6 5 5 5 5 5 5 4 4 4 4 5 5 5 6 7 7 7 8 8 8 9 9 9

ECMWFFLT2_700_spd_036.txt.gz
Wind_Speed
9 9 8 7 7 6 6 6 7 8 9 9 9 11 11 9 6 7 8 7 7 8 8 8 8 9 9 9 8 7 7 7 7 7 6 5 4 5 5 6 7 9 12 15 20 25 28 29 30 30 29 29 29 29 29 29 30 31 32 29 27 25
9 8 8 7 7 7 7 7 8 9 9 9 10 12 13 10 6 5 8 7 7 8 8 7 8 9 9 9 9 8 8 8 8 8 7 6 5 5 5 6 7 9 11 14 18 23 26 28 29 30 30 30 29 30 29 30 31 32 33 31 28 26
8 9 8 7 7 8 8 8 9 10 9 10 11 14 15 9 4 4 5 5 6 8 8 7 8 8 8 8 8 8 8 8 8 8 8 7 6 5 5 5 7 9 10 13 16 20 24 27 29 30 30 29 29 30 29 29 29 30 33 33 29 27
8 8 8 8 8 9 9 9 10 10 10 11 12 15 14 8 6 4 2 3 4 4 6 6 8 8 6 7 8 8 8 8 8 8 8 7 7 6 4 4 5 7 9 12 15 18 22 25 28 29 30 29 29 30 29 29 29 30 34 34 30 29
6 7 7 7 8 9 9 10 10 11 12 12 14 15 10 7 7 5 2 4 5 5 6 7 8 8 6 7 9 9 8 7 8 8 8 7 8 7 6 4 3 4 6 8 12 16 19 23 26 29 30 30 30 30 30 29 29 31 34 34 31 30
5 5 6 6 7 8 9 9 9 11 12 13 16 14 8 7 8 6 4 6 6 6 6 6 7 8 8 8 9 10 8 7 9 9 9 8 7 8 7 5 4 3 3 5 8 11 15 20 24 27 29 30 31 31 30 29 29 31 33 33 31 29
4 5 6 5 5 7 8 9 9 11 14 15 14 11 8 8 9 7 6 7 7 6 6 7 8 10 11 10 10 11 10 8 9 10 11 9 7 9 9 6 5 4 3 4 5 7 11 16 20 23 26 29 30 30 30 29 29 29 32 32 30 27
5 5 6 6 6 7 9 9 11 13 14 14 11 9 9 9 10 9 8 9 8 7 8 9 10 12 12 12 11 11 11 10 10 11 12 10 8 10 9 7 6 5 5 6 5 6 8 12 16 19 21 24 26 29 30 30 29 29 31 30 27 26
7 8 8 10 9 8 9 10 12 13 12 12 11 10 10 11 12 12 10 9 9 8 9 10 11 11 11 13 12 12 12 11 10 11 12 11 9 10 10 9 8 8 7 7 6 6 8 11 14 16 19 20 22 26 29 30 30 29 30 28 24 25
8 9 9 10 10 7 6 7 9 11 11 12 12 11 11 12 12 12 12 9 9 9 10 10 11 11 11 13 13 13 12 10 11 12 12 12 11 11 12 12 11 10 9 9 7 6 8 10 13 16 17 19 20 22 26 29 31 29 29 28 24 23
5 5 5 7 9 8 6 5 6 7 10 11 10 8 9 10 10 11 13 12 10 10 10 10 10 12 13 13 14 14 12 12 14 13 11 12 12 13 15 15 13 11 11 11 9 6 7 9 11 14 15 17 19 20 21 26 29 29 29 28 24 22
3 4 3 3 5 6 7 6 5 6 8 10 8 6 6 9 10 11 13 13 12 10 9 9 10 12 14 13 14 15 14 14 15 12 11 13 14 14 15 13 11 10 11 11 9 7 7 8 8 11 12 13 16 18 18 23 27 27 28 29 25 22
5 7 6 5 6 5 6 6 7 7 8 10 9 6 6 8 10 12 13 13 13 11 9 10 12 14 14 13 15 16 15 14 14 13 13 14 14 14 13 11 11 11 11 11 10 9 9 9 8 9 9 10 11 13 16 20 24 26 26 27 27 24
6 8 7 8 9 8 7 7 8 8 8 11 10 8 7 9 11 12 12 12 12 11 10 11 13 14 15 15 15 15 15 15 15 16 14 13 12 12 11 11 12 11 10 12 12 11 12 11 11 10 8 10 11 13 17 18 20 25 26 23 25 26
5 7 8 9 10 8 9 9 9 9 9 11 11 9 8 9 11 11 11 9 9 10 10 11 12 14 16 17 16 14 15 16 16 15 13 11 11 11 11 12 12 10 11 13 13 13 12 11 12 13 12 12 13 15 18 15 14 20 25 23 23 24
6 8 8 9 9 8 9 8 8 8 9 10 10 10 9 10 11 11 10 9 9 9 9 10 12 15 16 17 17 15 16 17 16 15 11 10 11 11 11 11 11 11 12 13 13 13 13 11 12 14 16 16 15 15 17 15 14 16 19 22 22 23
7 9 9 10 10 10 10 9 8 8 9 9 9 10 10 11 12 12 11 11 12 11 10 10 11 12 14 15 16 15 16 16 15 15 12 10 11 11 11 12 11 12 12 13 13 13 13 13 14 14 16 18 17 16 16 15 16 18 18 19 20 21
9 10 10 11 12 12 12 10 9 9 8 8 9 9 10 11 12 13 12 12 13 12 12 11 11 11 12 13 14 14 14 14 13 15 14 11 11 12 11 11 12 12 12 13 13 13 13 14 15 14 14 17 16 15 16 16 16 18 20 21 20 20
10 11 12 12 13 14 14 12 10 9 8 7 7 8 9 9 9 11 12 12 12 12 12 12 12 12 13 14 14 15 14 12 12 14 14 13 12 11 11 11 12 12 12 13 13 14 14 13 14 13 13 14 14 13 16 18 18 18 20 21 22 22
10 12 13 13 14 15 15 15 13 10 8 7 5 6 6 6 6 8 9 10 11 12 12 12 12 12 13 14 14 15 15 11 11 11 11 12 11 10 12 13 13 13 13 13 13 14 15 14 13 13 12 12 12 12 14 16 16 17 19 20 21 23
11 12 14 14 15 16 16 16 15 12 8 7 5 5 5 5 5 5 6 7 8 10 11 10 11 11 11 13 13 13 13 12 12 12 13 12 11 11 13 14 14 14 14 14 14 15 15 14 13 13 11 12 13 12 12 13 12 12 17 21 21 21
12 13 14 15 15 16 17 17 17 14 10 7 6 5 4 4 4 4 4 5 6 7 8 8 9 10 11 11 10 11 12 12 12 12 13 13 12 12 13 13 14 14 14 15 15 16 15 13 13 12 11 12 13 12 12 12 11 9 11 19 22 20
12 13 13 14 15 16 16 16 17 15 11 9 7 6 5 5 4 4 4 5 5 5 6 6 7 9 10 9 9 10 11 11 10 11 12 11 12 12 11 11 12 12 13 13 15 16 14 12 12 12 12 12 12 12 11 10 11 9 9 13 19 22
12 12 13 14 15 15 15 15 16 15 11 8 7 6 6 5 4 3 3 3 3 4 4 5 6 7 7 7 8 9 10 9 9 10 10 10 10 10 11 11 10 10 10 10 12 13 13 13 12 11 11 12 12 12 11 10 10 11 10 10 12 21
12 12 13 13 13 14 14 13 14 14 10 7 6 5 5 4 3 2 2 2 2 3 3 4 4 4 4 5 6 7 8 7 7 8 8 8 8 8 9 10 9 9 9 9 9 9 10 12 12 11 10 11 11 11 10 11 11 10 11 8 8 11
13 12 12 13 12 13 13 13 14 13 10 7 5 5 4 3 3 2 2 3 3 3 3 3 3 3 3 3 4 4 4 4 5 6 6 6 6 6 7 8 8 8 8 8 7 7 8 10 11 10 10 10 10 10 9 11 12 11 9 8 7 7
14 13 12 12 11 11 12 12 13 13 10 6 5 4 3 3 3 3 4 4 4 4 4 4 4 4 4 3 3 3 3 2 2 3 3 4 5 6 6 6 7 8 9 9 8 7 7 8 9 9 9 10 10 10 10 11 12 11 8 7 7 5
15 13 12 12 11 11 11 12 12 13 10 6 4 3 3 4 4 5 5 6 6 6 6 6 6 5 5 5 4 4 3 2 1 1 1 2 3 4 5 5 6 6 8 9 9 8 9 9 8 8 9 10 10 9 10 11 10 11 10 8 8 6
17 14 12 12 12 11 11 12 12 12 10 6 4 4 3 4 5 5 6 6 6 6 6 6 6 6 6 6 5 5 4 3 3 2 1 0 1 2 2 3 4 4 5 7 8 8 9 9 9 9 10 10 10 10 10 11 12 11 11 10 10 9
19 16 14 13 12 11 11 12 12 12 10 7 5 4 3 4 5 6 6 6 6 5 5 5 4 4 4 5 5 5 4 4 4 3 2 1 1 0 1 1 2 2 3 4 5 6 7 8 8 9 10 10 10 11 11 12 13 12 11 11 12 11
21 19 16 15 14 12 12 12 13 12 10 7 6 5 4 3 4 5 6 6 6 5 5 4 3 3 3 3 3 4 4 4 4 4 3 3 2 2 1 1 2 2 2 2 2 3 4 4 5 5 6 7 8 8 9 10 10 10 11 12 13 12
25 22 19 18 16 14 13 13 13 12 11 8 7 6 4 4 3 4 5 6 5 5 4 4 3 3 3 3 3 3 3 3 3 3 3 3 3 3 3 3 3 3 3 3 3 3 3 3 3 4 4 4 5 5 5 6 6 7 7 8 9 11
28 25 22 21 18 16 14 15 14 12 11 10 9 7 6 5 4 4 4 4 4 4 4 3 3 3 3 3 4 4 3 3 3 3 3 3 3 3 3 3 3 4 4 4 4 4 4 4 5 5 5 5 5 5 5 5 5 5 5 6 6 6
31 29 26 24 21 18 16 16 15 13 12 11 10 9 7 6 6 5 4 3 3 3 3 3 3 3 3 4 4 4 4 4 4 3 3 3 2 2 2 3 3 3 4 4 4 4 4 5 5 6 6 6 6 7 7 7 6 6 6 7 6 6
34 33 29 27 24 20 18 17 17 14 13 12 12 11 10 8 7 7 6 5 4 2 1 1 2 2 3 3 4 4 5 5 5 5 5 4 3 2 2 1 1 1 2 2 3 3 3 3 4 4 5 5 6 6 7 7 7 7 7 8 8 8
34 36 33 30 26 23 20 18 18 15 13 13 13 13 12 11 9 9 9 8 7 6 4 2 2 1 1 2 3 3 4 5 5 6 6 6 6 5 4 3 2 2 1 1 2 2 2 2 2 2 2 3 3 4 5 6 6 6 6 7 7 8
33 37 36 33 29 25 22 19 18 16 14 13 14 14 14 13 12 11 11 10 10 9 8 6 5 4 4 3 2 3 3 4 4 5 6 6 7 7 6 5 4 3 3 2 2 2 3 2 2 2 2 2 2 3 3 3 4 5 6 6 6 7